Preview of NWS' New Version of Forecast
This preview is not operational and should not be used for support decisions.

Regional Weather Roundup (RWR)

Issued by National Weather Service (NWS)

                            
000
ASUS46 KSEW 191410
RWRWA 

WASHINGTON REGIONAL WEATHER ROUNDUP
NATIONAL WEATHER SERVICE SEATTLE WA
700 AM PDT FRI APR 19 2019

NOTE:"FAIR" INDICATES FEW OR NO CLOUDS BELOW 12,000 FEET WITH NO 
SIGNIFICANT WEATHER AND/OR OBSTRUCTIONS TO VISIBILITY.

WAZ507-509-555>559-191500-
SEATTLE, TACOMA, EVERETT, AND VICINITY
  
CITY           SKY/WX    TMP DP  RH WIND       PRES   REMARKS
EVERETT        LGT RAIN  52  51  97 S8        29.98S                  
BOEING FIELD   LGT RAIN  54  50  86 SE9       29.99S                  
RENTON         LGT RAIN  54  52  93 SE7       29.99S                  
SEATAC AIRPORT LGT RAIN  53  50  89 S12       29.99F                  
JBLM-MCCHORD   LGT RAIN  53  53 100 S9        30.00F                  
PUYALLUP       DRIZZLE   54  54 100 CALM      30.02S                  
BREMERTON      CLOUDY    51  50  96 SW13      29.99R                  
JBLM-FT LEWIS  LGT RAIN  53  53 100 SE10      29.99F                  
TACOMA NARROWS CLOUDY    52  50  93 SW5       30.01S                  
$$
 
WAZ001-503-506-510-514-515-191500-
NORTH INTERIOR
  
CITY           SKY/WX    TMP DP  RH WIND       PRES   REMARKS
BELLINGHAM     LGT RAIN  52  49  89 S8        29.97S FOG              
FRIDAY HARBOR  FOG       51  49  92 S5        29.98R VSB 1/4          
EASTSOUND      CLOUDY    52  52 100 S6        29.95S                  
PORT ANGELES   FOG       50  49  96 NW7       29.99R VSB 1/2          
EDIZ HOOK      CLOUDY    50  50  99 W8        29.99R                  
PORT TOWNSEND  CLOUDY    52  52 100 CALM      29.97S                  
NAS WHIDBEY    FOG       54  51  90 SW3       30.02R VSB 1            
ARLINGTON      LGT RAIN  53  52  96 CALM      29.98S                  
BURLINGTON     CLOUDY    52  52 100 S7        29.98S FOG              
$$
 
WAZ020-022-039-040-504-511-512-191500-
SOUTHWEST INTERIOR
  
CITY           SKY/WX    TMP DP  RH WIND       PRES   REMARKS
SHELTON        CLOUDY    52  50  93 SW8       29.98F                  
OLYMPIA        CLOUDY    53  50  89 S7        30.00F                  
CHEHALIS       CLOUDY    55  54  94 CALM      30.02S                  
KELSO          CLOUDY    55  52  89 NE3       30.04S                  
VANCOUVER      MOCLDY    55  51  86 W3        30.02S                  
SCAPPOOSE, OR  CLOUDY    58  52  80 N6        30.01S                  
PORTLAND, OR   MOCLDY    55  51  86 W3        30.02S                  
$$
 
WAZ021-516-517-191500-
WASHINGTON COAST
  
CITY           SKY/WX    TMP DP  RH WIND       PRES   REMARKS
FORKS          CLOUDY    50  50 100 SW5       30.00S FOG              
HOQUIAM        CLOUDY    51  51 100 SE6       30.00F                  
ASTORIA, OR    LGT RAIN  52  50  93 CALM      30.02F FOG              
$$
 
WAZ019-023-024-040-567>569-191500-
CASCADE MOUNTAINS AND COLUMBIA GORGE
  
CITY           SKY/WX    TMP DP  RH WIND       PRES   REMARKS
STAMPEDE PASS  FOG       44  42  93 VRB7      29.98F VSB 1/4          
TROUTDALE, OR  CLOUDY    56  51  84 W5        30.02R                  
HOOD RIVER, OR MOSUNNY   54  50  87 MISG      29.97S                  
THE DALLES, OR PTCLDY    58  50  75 NW10      29.95R                  
$$

WAZ026-027-041>044-520-521-191500-
EAST SLOPES
  
CITY           SKY/WX    TMP DP  RH WIND       PRES   REMARKS
OMAK           CLOUDY    52  47  83 N16       29.88R                  
WENATCHEE      MOCLDY    51  47  86 E5        29.88F                  
ELLENSBURG     CLOUDY    54  47  77 S5        29.92F                  
YAKIMA         CLOUDY    56  46  69 W6        29.92S                  
SUNNYSIDE ARPT PTSUNNY   55  51  86 CALM      29.91S                  
YAKIMA TC      PTSUNNY   54  48  78 CALM      29.91R                  
$$

WAZ028-034-035-191500-
COLUMBIA BASIN
  
CITY           SKY/WX    TMP DP  RH WIND       PRES   REMARKS
EPHRATA        CLOUDY    54  50  86 SE5       29.88S                  
MOSES LAKE     CLOUDY    58  50  75 SW3       29.89F                  
PASCO          PTCLDY    62  51  67 SE7       29.90F                  
RICHLAND ARPT  MOSUNNY   63  53  69 SW6       29.90                   
HERMISTON, OR  CLEAR     53  49  86 E3        29.93S                  
$$

WAZ036>038-191500-
NORTHEAST WASHINGTON
  
CITY           SKY/WX    TMP DP  RH WIND       PRES   REMARKS
SPOKANE GEIGER CLOUDY    55  46  71 S8        29.93F                  
SPOKANE FELTS  CLOUDY    54  48  80 N3        29.93F                  
FAIRCHILD AFB  LGT RAIN  54  54 100 S9        29.92S                  
COEURDALENE,ID LGT RAIN  53  47  79 SE7       29.95F                  
DEER PARK        N/A     50  47  89 MISG      29.93S                  
$$

WAZ029>033-191500-
SOUTHEAST WASHINGTON
  
CITY           SKY/WX    TMP DP  RH WIND       PRES   REMARKS
PULLMAN        CLOUDY    54  47  77 E6        29.99S                  
LEWISTON, ID   MOSUNNY   55  47  74 SE7       29.97S                  
WALLA WALLA    CLEAR     58  48  69 E6        29.94S                  
PENDLETON, OR  CLEAR     55  47  74 SE9       29.95S                  
$$